Dewpoint
44 44 38 22 15 20 19 18 37 45 48 50 48 49 53 54 54 51 61 61 61 60 65 67 69 69 68 69 68 68 67 65 65 63 63 62 61 60 61 60 59 59 56 55 54 55 55 55 55
31 30 16 9 15 15 14 38 41 48 52 55 51 47 49 54 57 60 61 61 61 61 62 66 69 69 69 68 68 67 65 65 63 62 61 60 59 60 60 60 60 59 56 55 54 53 53 54 54
37 23 9 12 14 14 13 40 42 44 48 53 49 47 50 55 59 60 63 62 61 60 63 67 68 69 69 68 67 66 66 64 62 61 59 58 59 60 60 62 61 59 57 56 56 56 56 57 56
21 17 7 14 15 15 30 41 39 40 44 45 46 46 49 57 57 61 65 62 62 61 65 68 67 69 68 68 67 67 66 63 62 60 59 59 60 61 61 62 61 59 58 58 58 58 58 58 56
18 14 4 8 12 14 17 41 41 45 46 42 44 48 46 54 61 63 64 64 63 66 66 66 67 68 68 67 66 67 65 63 62 61 61 60 60 60 61 62 61 60 59 58 58 58 58 57 55
12 11 10 10 11 28 26 44 45 44 49 37 43 43 46 55 58 60 64 64 64 65 65 66 67 68 67 67 66 66 65 64 62 61 61 61 61 61 61 62 61 61 59 57 58 58 57 54 49
12 9 7 9 11 20 31 43 45 43 41 37 37 47 53 51 59 62 64 65 66 65 64 65 66 67 66 65 65 65 65 64 63 62 62 62 61 61 61 61 61 60 58 57 55 54 54 53 48
9 10 10 11 10 31 39 47 49 48 42 46 50 36 48 58 62 59 59 63 63 64 65 64 65 65 63 63 64 64 63 62 60 59 59 58 58 59 59 57 60 59 57 54 48 46 46 47 46
13 9 11 11 24 39 41 44 44 39 39 43 46 52 56 61 60 58 59 61 62 63 64 63 62 62 62 63 63 63 63 60 59 58 59 58 56 58 57 56 58 57 54 48 43 41 43 46 45
12 13 10 21 43 40 44 49 35 35 34 38 50 59 60 57 56 58 59 60 61 61 62 60 62 60 58 55 60 60 60 58 57 57 57 59 59 56 55 53 54 52 49 47 42 42 44 46 45
13 12 12 19 42 45 43 41 35 35 34 39 45 58 60 59 60 59 59 58 59 60 60 59 58 58 53 53 56 57 58 59 59 59 60 60 60 57 55 53 52 53 52 52 47 48 47 47 47
11 12 11 23 43 43 42 37 37 37 36 42 54 58 59 57 57 58 59 59 56 54 56 57 56 55 53 54 54 57 59 59 61 60 60 59 60 58 55 55 54 51 51 48 50 49 47 45 45
11 14 16 32 32 32 32 36 42 39 37 49 57 58 56 54 56 56 58 57 52 53 55 55 55 55 54 54 60 60 60 62 61 61 61 61 60 59 56 53 52 51 51 48 45 45 44 46 45
14 18 28 30 25 29 36 41 43 41 44 52 55 54 52 49 51 53 50 50 50 50 53 54 55 56 56 60 60 60 61 61 60 60 61 60 58 58 57 52 50 49 46 46 45 46 47 45 43
18 15 22 22 25 30 42 37 30 34 44 47 47 47 46 45 47 46 47 48 47 48 51 52 55 57 61 60 58 57 56 57 59 60 60 59 57 54 53 51 49 46 46 47 47 45 43 41 40
17 16 17 21 19 28 35 34 29 32 37 40 40 41 41 42 42 43 45 45 47 49 50 54 56 60 58 56 55 57 59 58 58 59 57 54 52 51 51 48 48 47 47 46 45 42 41 39 38
14 13 11 17 16 24 31 29 29 30 35 36 37 36 35 36 38 40 43 45 48 51 53 55 59 59 57 57 58 59 58 57 56 54 53 51 50 49 48 47 48 48 46 44 42 42 40 36 34
16 15 16 11 11 15 26 25 25 27 33 36 37 37 38 36 35 38 40 43 48 53 55 56 59 60 59 59 58 57 55 55 54 52 50 48 47 48 48 47 47 46 43 42 42 41 38 35 34
19 17 12 11 12 12 24 20 19 23 28 35 38 40 40 40 42 44 44 44 47 56 57 58 59 59 58 57 54 53 53 51 50 49 48 48 48 46 45 46 45 43 42 40 40 38 37 36 36
18 15 18 12 12 11 12 10 15 21 24 30 37 39 41 42 44 49 48 46 49 57 57 59 58 58 57 56 54 54 51 50 49 49 48 47 46 45 45 43 42 41 39 37 38 38 37 35 35
13 12 18 16 13 10 15 7 17 22 23 25 33 37 40 42 46 49 49 51 53 57 58 59 58 58 57 55 53 51 50 49 46 47 46 46 45 44 41 41 39 39 38 37 38 37 36 34 34
13 23 20 16 15 13 22 16 16 22 25 26 29 33 37 40 45 49 51 52 54 58 58 59 58 57 57 53 49 48 48 46 45 46 46 45 43 42 40 38 38 39 39 39 39 36 38 35 34
21 23 22 15 14 21 18 20 24 24 27 30 35 36 37 39 43 47 51 53 56 58 58 58 58 56 54 49 48 49 47 47 46 46 45 45 45 43 41 38 39 40 40 40 39 39 39 37 35
26 23 20 19 17 22 25 24 22 25 27 31 33 37 39 41 46 48 51 54 55 57 57 58 56 50 49 48 48 47 47 44 44 43 42 39 36 35 36 36 37 37 37 37 37 37 38 36 36
19 17 18 24 26 17 15 15 22 27 31 42 35 36 40 45 46 48 50 52 53 54 54 51 47 46 48 47 47 48 46 41 37 35 34 34 33 32 34 34 34 34 34 34 35 35 37 37 36
29 13 18 21 27 22 19 14 17 25 26 30 37 41 44 46 48 48 48 47 48 50 51 49 46 45 46 47 46 44 39 36 33 37 35 32 31 32 32 30 31 31 31 31 32 35 35 36 36
17 17 20 21 27 20 14 6 27 26 26 28 38 41 43 44 45 44 42 43 45 47 48 47 44 44 46 45 41 38 36 35 35 36 32 31 31 28 30 30 30 29 30 32 32 32 33 35 35
22 21 20 16 13 14 10 9 25 24 23 28 36 39 42 43 43 40 39 41 43 45 46 46 45 44 45 40 39 37 38 36 35 30 30 29 28 28 29 29 28 29 30 31 31 33 33 34 35
23 20 18 15 21 19 16 13 14 17 21 26 31 39 40 42 41 39 39 40 43 45 46 46 45 43 40 37 37 37 36 33 30 30 29 27 28 28 28 27 28 29 29 32 31 33 32 31 31
22 23 20 22 16 19 23 21 17 18 19 26 28 34 39 41 40 39 39 41 42 44 45 45 44 40 37 36 38 36 33 33 31 29 28 28 28 29 28 27 27 29 29 29 29 31 31 29 28
Wind_Speed
10 13 13 15 9 11 21 24 14 11 11 18 16 17 22 20 10 4 12 28 29 27 26 23 22 21 20 21 21 21 19 19 19 19 19 19 19 18 18 17 18 19 20 20 19 19 18 18 18
12 17 12 10 14 19 21 19 20 15 9 13 17 10 19 19 15 16 14 24 26 26 23 22 22 22 20 21 20 21 20 19 18 19 19 19 18 18 18 16 18 18 19 19 20 19 19 18 17
11 15 11 10 19 23 21 17 15 10 12 13 7 11 7 4 6 3 14 23 25 24 24 22 23 22 21 19 20 21 19 19 18 18 19 18 18 18 18 17 17 17 17 18 19 19 18 17 18
9 11 11 13 22 26 7 13 8 12 14 10 14 11 8 9 3 9 15 22 23 23 23 22 22 24 22 19 19 20 19 18 18 19 18 18 17 17 17 17 16 16 17 16 16 16 16 17 19
14 10 17 20 21 24 6 16 11 14 6 4 9 9 9 5 16 8 13 15 19 22 23 20 23 24 22 21 18 19 19 17 19 19 18 17 17 16 15 15 15 15 15 15 15 14 13 14 15
16 16 20 22 26 16 9 21 18 21 17 4 13 10 6 11 12 7 6 8 14 21 22 19 22 21 24 21 18 18 17 18 19 19 18 16 15 14 13 13 13 14 14 14 12 11 10 10 13
18 19 22 24 24 13 4 17 15 9 6 8 3 12 13 14 15 14 14 16 16 22 17 20 18 21 22 22 19 17 16 18 18 18 17 15 13 12 11 12 11 11 12 11 9 8 8 9 12
18 20 25 25 25 5 9 11 18 4 4 5 11 3 12 25 21 19 14 13 16 20 13 19 20 18 18 17 19 17 16 17 17 17 15 15 14 13 11 12 9 9 9 8 8 8 6 4 5
20 18 21 24 10 3 19 9 16 8 11 4 2 4 26 25 25 23 12 10 15 18 18 18 18 20 21 17 16 15 16 17 16 13 13 12 10 11 12 11 9 8 6 6 5 3 6 15 3
16 17 23 6 15 4 8 19 7 10 13 12 13 19 25 25 23 24 16 14 14 24 20 19 18 20 20 17 16 14 15 13 13 12 12 10 6 10 12 10 10 10 8 4 2 2 4 10 11
19 22 16 18 27 28 18 30 4 4 3 4 12 20 21 20 20 19 23 22 28 26 18 16 16 17 18 17 15 14 12 13 12 7 6 3 7 6 9 10 9 8 8 6 6 3 8 6 9
17 18 19 14 23 22 23 12 15 9 5 9 19 24 21 19 18 15 18 21 21 20 20 18 14 8 17 13 14 11 12 13 10 7 2 6 4 3 4 5 4 2 7 5 10 14 15 13 12
16 19 10 11 7 7 13 26 15 5 13 3 22 23 19 17 18 20 20 22 20 19 20 17 12 11 13 13 14 15 13 12 9 5 5 9 9 7 8 9 7 11 14 13 14 13 11 11 13
12 15 12 6 10 8 14 18 21 30 12 15 20 21 16 17 21 22 20 21 21 19 20 18 15 11 12 15 17 15 11 11 7 7 7 6 8 8 10 13 12 13 12 11 6 7 10 12 13
6 12 9 6 7 16 34 17 3 13 23 18 17 19 17 17 19 19 20 19 21 20 21 19 19 17 19 16 15 14 10 7 6 5 8 4 5 9 11 11 10 8 8 8 9 10 11 12 11
12 11 8 9 13 10 19 4 14 9 15 17 19 20 18 16 18 17 20 18 22 23 22 19 15 21 18 15 13 13 11 5 10 4 9 9 10 12 11 10 10 5 3 1 8 9 11 12 11
7 12 17 10 11 11 9 13 10 8 17 18 14 17 17 18 19 15 18 17 20 23 21 18 18 18 17 11 8 7 12 9 10 8 12 6 6 7 9 7 6 5 4 7 8 9 10 12 13
9 13 15 14 17 15 14 15 15 15 14 18 17 17 17 17 17 19 17 17 17 23 22 16 17 16 12 9 9 8 8 11 8 8 10 7 7 5 4 9 5 4 4 7 7 5 8 11 12
9 14 12 12 8 13 19 20 20 16 18 18 17 17 17 17 15 12 8 11 14 23 21 19 19 15 11 11 9 7 8 10 9 9 9 8 9 5 3 5 4 3 7 6 3 3 8 9 10
11 15 6 7 6 7 13 12 19 18 20 20 19 20 19 18 16 15 13 12 14 22 20 21 19 17 15 11 8 9 11 11 11 12 8 9 6 6 7 5 6 8 5 7 5 6 6 7 10
17 7 7 13 8 9 13 13 16 15 18 20 21 21 21 23 22 17 14 12 10 18 21 23 18 16 18 11 13 11 13 10 10 12 9 9 6 6 4 4 2 3 5 7 8 8 8 7 9
10 13 10 14 10 11 8 12 9 15 15 19 20 19 20 22 21 21 17 16 16 16 16 18 15 17 17 15 14 15 12 12 12 15 13 12 8 6 4 1 0 1 3 6 7 8 6 7 10
3 14 16 10 11 3 11 13 28 14 19 23 19 18 21 22 23 22 20 17 13 15 15 19 23 22 15 11 15 15 7 12 10 13 10 8 11 9 9 8 4 2 4 7 10 12 10 5 8
11 10 11 11 10 6 27 20 11 21 24 19 20 19 16 13 13 13 16 16 18 20 22 21 23 16 14 9 5 7 8 11 12 9 8 4 4 3 8 11 11 10 10 10 11 11 6 7 9
10 11 5 11 12 11 14 7 10 26 24 32 32 17 15 12 14 16 20 22 22 21 16 15 14 16 14 11 7 8 9 8 6 6 4 6 5 5 9 10 9 8 10 12 13 14 11 9 12
20 12 4 2 4 19 3 6 5 13 8 9 18 15 15 15 14 15 17 16 16 15 14 16 16 16 14 12 11 9 11 8 6 9 7 3 4 5 5 5 6 9 11 12 14 13 13 9 7
7 3 4 11 8 6 9 20 9 7 8 8 17 15 18 16 18 19 19 19 18 16 14 15 16 16 16 14 13 11 9 8 7 3 4 1 3 2 4 6 8 9 11 12 14 14 15 8 8
5 8 4 2 3 8 10 11 13 6 7 6 16 17 16 17 18 18 20 18 18 17 17 14 14 16 17 16 13 11 10 7 7 4 2 1 0 2 5 6 7 9 10 12 13 9 11 13 10
7 9 7 9 6 1 7 5 7 9 7 6 9 19 18 19 19 19 19 19 17 16 16 14 14 14 16 14 13 10 8 9 7 9 5 3 1 3 5 8 9 10 12 8 11 14 13 10 8
7 11 13 7 8 4 1 9 5 6 5 5 7 11 19 19 20 20 19 18 17 16 15 14 12 12 15 14 13 12 8 10 12 7 6 6 3 3 6 7 9 11 8 11 8 10 10 8 7
Wind_Direction
243 237 234 256 243 232 254 254 90 52 38 15 35 51 83 44 27 35 159 118 127 131 131 128 120 119 114 109 107 102 101 100 99 96 92 86 81 77 73 73 74 71 67 65 61 57 51 43 32
254 256 245 273 236 262 258 48 51 72 104 58 30 30 44 57 77 116 103 131 134 127 136 130 123 118 115 109 108 105 106 104 100 97 92 89 84 80 77 77 79 74 72 67 64 60 55 45 33
258 266 256 237 236 250 268 74 115 93 134 133 103 62 41 64 34 74 142 141 128 133 124 131 125 118 109 108 105 105 104 102 101 97 93 90 86 83 81 80 77 74 70 65 60 54 48 39 28
234 228 250 256 256 261 151 127 120 116 113 70 99 88 91 59 48 132 142 128 127 133 125 132 127 112 103 102 100 101 102 102 104 98 94 90 86 83 79 76 75 73 67 63 56 53 42 33 27
232 268 237 252 249 254 231 112 97 64 31 145 167 144 122 72 90 116 144 141 134 117 123 132 123 111 113 107 104 104 105 107 101 98 95 92 91 88 82 77 73 68 65 57 54 49 46 40 28
231 225 257 247 247 0 27 118 102 96 277 119 113 127 106 149 69 76 91 101 132 122 123 129 117 115 106 107 109 101 103 104 100 98 97 95 91 88 82 77 74 72 67 61 52 51 49 46 39
245 246 242 261 277 231 208 100 103 131 269 70 88 117 131 138 129 85 85 83 71 112 125 123 115 105 111 114 106 106 107 103 103 101 101 102 104 105 102 87 75 74 78 72 64 52 37 26 22
238 255 271 277 268 160 66 91 108 78 228 317 6 357 144 134 119 91 65 103 85 113 136 143 128 125 115 104 109 113 112 108 107 114 128 137 136 134 121 94 84 88 86 76 56 38 15 355 4
244 264 264 265 303 12 340 8 168 181 144 125 190 160 117 128 118 102 102 118 137 151 169 150 143 132 115 113 116 117 121 122 128 141 155 160 166 148 112 101 109 109 114 108 90 29 346 344 254
235 241 253 297 135 141 83 242 128 155 148 137 126 102 115 121 124 133 169 169 159 133 164 162 145 132 130 126 146 150 151 152 161 170 169 209 138 110 131 136 147 156 161 167 193 258 336 26 2
226 246 272 300 131 141 179 237 145 157 125 331 140 114 116 131 140 147 165 161 138 157 158 105 119 139 137 145 160 162 176 164 137 165 106 107 107 154 150 168 168 191 197 184 210 219 45 24 5
241 249 263 344 146 152 182 200 76 74 255 277 128 133 136 149 144 145 141 127 147 121 113 113 120 135 129 142 164 151 108 91 90 88 167 155 188 212 126 79 131 104 66 50 27 33 19 5 333
234 267 232 66 81 126 100 84 37 321 213 113 119 132 146 148 143 150 149 146 133 128 122 126 141 128 154 167 112 105 119 106 118 149 64 41 52 39 55 69 18 41 52 44 30 21 341 331 358
205 268 104 126 127 96 83 50 112 257 261 146 135 139 146 145 157 149 140 138 135 136 137 140 148 161 166 95 100 99 104 106 91 59 72 21 39 18 29 74 64 51 43 27 9 359 345 354 353
290 239 135 222 166 113 124 213 175 250 146 138 146 146 153 169 143 141 140 136 140 145 137 154 154 174 111 113 109 89 75 94 92 77 53 10 60 77 84 79 65 51 34 12 16 4 1 348 348
253 230 187 192 216 137 96 230 205 146 132 151 160 153 159 141 143 150 137 156 144 141 154 146 154 126 123 115 124 145 137 111 100 106 105 63 67 84 83 77 68 38 324 17 31 11 354 339 337
214 233 207 194 224 144 131 256 258 174 152 149 155 155 158 156 146 142 148 163 155 143 148 151 140 126 114 122 117 117 126 149 122 128 86 96 101 101 110 107 93 355 341 42 44 8 345 345 339
200 217 230 210 204 203 133 225 178 181 181 158 159 160 160 164 159 156 166 157 162 146 142 151 126 126 135 148 165 144 127 92 105 128 118 153 139 151 151 103 90 331 17 41 23 355 346 341 341
237 225 224 225 163 210 177 189 168 180 183 175 170 174 166 168 131 135 161 169 158 138 145 150 140 139 161 181 181 150 138 134 131 121 156 173 125 141 53 77 115 122 11 12 328 12 342 342 346
231 245 269 107 178 243 210 220 159 181 194 189 183 172 172 165 175 158 193 193 161 148 151 143 154 160 198 191 190 162 141 146 159 139 146 125 163 131 117 56 5 40 5 323 352 1 323 329 359
236 250 157 248 172 229 285 223 165 177 198 205 188 188 185 180 171 175 189 181 184 146 148 144 162 172 207 206 152 139 146 138 128 126 155 144 141 133 117 149 95 356 343 343 341 323 311 338 322
273 336 233 256 196 231 2 282 151 177 214 215 199 196 187 188 177 172 184 194 184 140 146 152 160 192 206 173 160 159 165 172 187 174 152 141 138 160 208 183 89 328 330 308 296 308 321 305 295
137 266 279 261 244 142 316 300 211 214 216 211 216 202 192 192 184 175 177 177 138 137 150 171 194 198 176 167 164 178 181 130 102 94 111 143 170 189 215 218 211 273 298 305 304 290 279 291 305
165 232 252 268 267 156 246 230 162 205 234 259 196 203 207 185 161 177 161 153 173 172 191 196 201 155 141 163 152 170 142 128 134 153 156 179 88 18 42 40 27 1 344 335 330 321 318 308 304
227 245 234 14 343 268 267 216 204 210 220 182 219 182 185 166 176 182 167 182 174 172 164 149 159 145 157 154 146 120 113 97 101 102 80 41 11 29 30 30 7 347 331 321 313 307 284 265 270
299 249 314 246 202 278 36 245 106 103 98 112 148 156 165 167 165 164 157 153 157 166 170 164 175 155 155 153 147 141 123 134 117 91 65 49 360 20 18 350 347 335 329 324 318 312 303 280 259
346 294 346 221 207 324 277 281 112 103 107 139 144 164 169 175 170 168 170 163 161 173 177 183 172 165 159 162 142 132 130 106 94 134 128 97 56 306 36 359 341 331 327 323 310 301 296 325 343
253 336 304 239 281 272 302 272 118 154 136 168 165 173 180 180 178 180 178 173 170 179 177 190 182 172 162 148 141 146 140 144 148 98 196 134 87 1 324 332 328 321 310 296 299 335 342 339 327
175 245 239 288 259 332 320 69 48 83 110 171 211 174 182 184 190 189 185 182 176 175 172 186 194 175 150 156 160 143 148 134 186 187 182 167 137 287 327 326 325 309 298 353 350 339 325 335 351
315 283 218 205 269 192 345 286 95 104 103 169 216 200 181 188 194 191 191 180 181 176 176 186 203 174 166 171 158 150 156 205 199 175 180 168 201 299 319 320 304 299 337 350 333 316 316 337 340